Medford, OR

6:20 AM PST on January 19, 2018 (GMT -0800)
Rogue Valley International-Medford

Weather History for KMFR - March, 2014

Change the Weather History Date:

Monday, March 24, 2014

  Actual Average Record
Temperature  
Mean Temperature 55 °F 49 °F  
Max Temperature 76 °F 61 °F 80 °F (1960)
Min Temperature 34 °F 38 °F 25 °F (1963)
Degree Days  
Heating Degree Days 10 16  
Month to date heating degree days 319 412  
Since 1 July heating degree days 3689 3526  
Cooling Degree Days 0 0  
Month to date cooling degree days 0 0  
Year to date cooling degree days 0 0  
Growing Degree Days 4 (Base 50)    
Moisture  
Dew Point 30 °F    
Average Humidity 47    
Maximum Humidity 75    
Minimum Humidity 18    
Precipitation  
Precipitation 0.00 in 0.05 in 0.88 in (1975)
Month to date precipitation 2.47 1.35  
Year to date precipitation 7.80 5.79  
Snow  
Snow 0.00 in 0.10 in - ()
Month to date snowfall 0.0 0.5  
Since 1 July snowfall 3.4 4.1  
Snow Depth 0.00 in    
Sea Level Pressure  
Sea Level Pressure 30.05 in    
Wind  
Wind Speed 2 mph (WNW)    
Max Wind Speed 9 mph    
Max Gust Speed 13 mph    
Visibility 10 miles    
Events      
T = Trace of Precipitation, MM = Missing Value Source: NWS Daily Summary

Daily Weather History Graph

Daily Weather History Graph

Search for Another Location

Airport or City:

Trip Planner

Search our weather history database for the weather conditions in past years. The results will help you decide how hot, cold, wet, or windy it might be!

Date:

Astronomy

Mar. 24, 2014 Rise Set
Actual Time 7:07 AM PDT 7:28 PM PDT
Civil Twilight 6:39 AM PDT 7:56 PM PDT
Nautical Twilight 6:06 AM PDT 8:29 PM PDT
Astronomical Twilight 5:32 AM PDT 9:03 PM PDT
Moon 2:49 AM PDT (3/24) 12:53 PM PDT (3/24)
Length of Visible Light 13h 17m
Length of Day
12h 20m
Last Quarter, 42% of the Moon is Illuminated
Mar 24
Last Quarter
Mar 30
New
Apr 7
First Quarter
Apr 15
Full
Apr 22
Last Quarter

Hourly Weather History & Observations

Time (PDT) Temp. Windchill Dew Point Humidity Pressure Visibility Wind Dir Wind Speed Gust Speed Precip Events Conditions
12:53 AM 46.0 °F 44.8 °F 30.9 °F 56% 30.17 in 10.0 mi South 3.5 mph - N/A   Clear
1:53 AM 42.1 °F - 28.9 °F 60% 30.17 in 10.0 mi Calm Calm - N/A   Clear
2:53 AM 41.0 °F - 28.9 °F 62% 30.16 in 10.0 mi Calm Calm - N/A   Clear
3:53 AM 39.0 °F 36.8 °F 28.9 °F 67% 30.14 in 10.0 mi South 3.5 mph - N/A   Clear
4:53 AM 37.9 °F 35.5 °F 28.0 °F 68% 30.14 in 10.0 mi SE 3.5 mph - N/A   Clear
5:53 AM 35.1 °F - 28.0 °F 76% 30.14 in 10.0 mi Calm Calm - N/A   Clear
6:53 AM 34.0 °F - 27.0 °F 75% 30.14 in 10.0 mi Calm Calm - N/A   Clear
7:53 AM 37.0 °F - 28.9 °F 73% 30.15 in 10.0 mi Calm Calm - N/A   Clear
8:53 AM 41.0 °F - 30.0 °F 65% 30.15 in 10.0 mi Calm Calm - N/A   Clear
9:53 AM 45.0 °F - 30.9 °F 58% 30.15 in 10.0 mi Calm Calm - N/A   Clear
10:53 AM 50.0 °F - 30.0 °F 46% 30.14 in 10.0 mi Calm Calm - N/A   Clear
11:53 AM 55.9 °F - 30.0 °F 37% 30.12 in 10.0 mi Calm Calm - N/A   Clear
12:53 PM 62.1 °F - 33.1 °F 34% 30.09 in 10.0 mi Calm Calm - N/A   Clear
1:53 PM 66.9 °F - 36.0 °F 32% 30.06 in 10.0 mi NE 4.6 mph - N/A   Clear
2:53 PM 71.1 °F - 35.1 °F 27% 30.02 in 10.0 mi NNE 4.6 mph - N/A   Clear
3:53 PM 75.0 °F - 32.0 °F 21% 29.99 in 10.0 mi NW 6.9 mph - N/A   Clear
4:53 PM 75.0 °F - 30.0 °F 19% 29.96 in 10.0 mi Variable 4.6 mph - N/A   Clear
5:53 PM 73.9 °F - 30.9 °F 21% 29.93 in 10.0 mi Calm Calm - N/A   Clear
6:53 PM 73.0 °F - 30.0 °F 20% 29.92 in 10.0 mi NW 4.6 mph - N/A   Clear
7:53 PM 69.1 °F - 25.0 °F 19% 29.90 in 10.0 mi WNW 8.1 mph - N/A   Clear
8:53 PM 62.1 °F - 28.9 °F 29% 29.92 in 10.0 mi SW 4.6 mph - N/A   Clear
9:53 PM 59.0 °F - 28.9 °F 32% 29.91 in 10.0 mi Variable 4.6 mph - N/A   Clear
10:53 PM 54.0 °F - 33.1 °F 45% 29.91 in 10.0 mi Calm Calm - N/A   Clear
11:53 PM 51.1 °F - 34.0 °F 52% 29.90 in 10.0 mi Calm Calm - N/A   Clear